Wind_Speed
114 111 109 108 105 105 100 93 91 86 82 77 74 72 77 79 74 70 66 65 63 60 56 54 52 49 45 42 37 36 36 33 32 32 32 33 34 34
126 122 116 114 110 109 107 102 100 94 91 87 87 89 83 83 82 80 76 72 70 66 64 62 62 57 54 50 48 45 41 40 38 34 34 36 36 36
130 129 131 124 121 115 114 111 108 104 99 97 90 91 91 86 88 86 85 82 79 75 72 70 68 65 62 56 52 48 47 45 44 41 36 36 38 39
119 132 131 135 132 127 124 119 113 111 109 104 102 97 97 93 91 92 89 88 85 84 82 80 77 73 71 64 61 60 56 54 52 49 45 42 41 42
99 111 128 135 136 136 131 129 123 117 113 113 109 111 106 99 96 97 95 92 86 83 82 80 79 77 77 72 68 64 61 60 57 56 51 47 45 43
84 92 104 121 135 138 138 137 133 129 121 117 108 109 109 107 100 98 96 92 89 91 90 86 83 77 74 75 72 69 67 65 65 60 60 54 51 50
80 82 86 99 116 131 140 141 140 136 131 124 117 112 114 110 107 104 102 99 92 92 93 94 92 91 88 85 79 73 73 72 69 64 64 62 59 56
77 79 82 84 96 112 128 139 142 142 137 131 127 124 118 116 115 115 114 109 100 98 94 91 93 93 93 89 87 86 87 85 81 75 72 70 67 64
74 76 80 84 86 95 112 126 139 143 142 139 135 132 131 128 122 121 117 111 111 107 103 98 99 97 98 93 90 89 90 90 89 84 79 73 70 69
70 75 77 81 86 87 93 111 126 135 143 144 141 140 136 134 130 129 126 120 112 109 108 103 107 104 105 100 94 92 91 92 94 91 79 66 64 71
64 70 78 78 81 87 88 92 106 122 132 142 147 145 145 139 135 136 132 127 121 111 112 105 112 107 109 104 100 100 99 92 92 87 86 77 67 70
66 62 74 80 80 84 87 88 90 100 116 129 142 149 148 149 144 140 140 136 132 131 123 119 115 118 116 115 111 105 109 107 106 97 92 85 84 83
72 62 67 81 81 83 86 88 88 88 95 109 125 140 147 150 149 148 144 142 139 135 138 130 121 122 123 123 122 117 114 108 107 105 101 93 92 87
68 63 64 76 82 81 84 88 91 90 87 89 100 118 132 147 151 151 151 148 144 139 134 136 134 133 133 131 127 123 121 111 111 110 106 102 105 95
66 62 64 72 79 82 81 86 89 91 92 91 89 94 105 122 137 152 156 152 152 149 149 150 146 140 140 136 131 129 128 122 117 116 121 115 113 105
64 60 65 69 74 79 81 83 87 90 92 93 92 93 94 97 109 127 143 156 157 154 153 154 151 148 145 142 135 131 133 127 127 123 124 128 117 114
59 62 64 66 70 76 80 81 81 85 90 93 93 93 94 95 99 102 114 126 141 154 157 155 156 154 152 147 140 138 140 133 132 132 130 127 127 127
57 60 62 64 67 72 76 79 80 82 84 87 90 91 92 93 95 97 103 105 113 124 143 157 157 155 155 153 150 146 143 142 139 140 139 135 132 133
53 58 61 63 65 68 71 74 78 78 78 79 81 85 88 90 92 92 95 95 103 107 113 124 145 158 160 155 155 153 152 148 148 144 145 143 140 137
50 53 56 59 61 64 67 68 70 71 71 71 70 74 78 82 85 89 91 90 91 93 101 109 113 121 137 154 162 159 156 158 157 153 151 149 143 145
46 49 52 54 57 59 61 62 64 66 65 66 70 75 78 78 78 79 84 87 86 87 89 93 99 108 112 114 127 146 160 167 166 165 164 163 157 162
43 45 47 50 52 54 57 59 59 60 65 70 73 74 75 74 75 77 79 81 82 83 84 89 94 95 97 102 110 114 120 134 147 160 168 168 169 166
42 44 46 48 51 54 55 57 59 62 64 65 65 68 69 70 71 73 75 77 79 80 83 88 89 90 90 92 96 99 105 116 119 121 130 147 161 167
Wind_Direction
243 242 239 240 240 243 246 244 246 244 244 242 240 242 245 242 237 237 237 241 245 248 246 244 246 246 248 250 251 257 259 257 252 254 257 258 252 253
242 241 240 241 241 240 239 240 242 243 241 244 245 247 248 245 244 240 238 239 239 240 243 247 250 248 248 250 252 252 252 255 254 250 251 253 255 254
240 240 238 240 241 240 239 239 238 240 242 244 247 246 246 245 243 244 242 240 240 241 243 245 246 249 251 250 251 253 251 251 253 252 249 253 257 253
242 239 238 238 239 240 240 239 239 238 239 242 244 245 244 245 243 245 243 244 242 242 243 245 247 250 249 248 250 252 254 255 251 251 253 254 257 260
244 242 240 239 236 237 237 238 238 239 238 237 238 241 245 245 245 243 240 242 244 246 245 245 245 245 248 248 248 249 251 252 252 250 251 254 255 261
250 244 240 240 239 236 235 236 236 237 237 238 236 236 239 241 242 240 238 239 244 245 245 246 246 245 245 246 247 249 247 248 251 251 251 252 256 260
254 250 244 240 239 238 235 234 235 236 235 234 234 234 236 237 239 238 237 239 243 246 245 246 249 250 250 248 248 246 249 249 249 250 251 251 253 255
260 253 250 244 240 238 237 235 235 235 235 233 234 235 235 236 237 240 241 242 244 245 243 245 247 249 251 250 249 250 250 251 252 254 256 255 259 261
264 258 252 249 244 241 239 237 235 234 234 234 232 234 236 236 238 239 241 242 243 242 243 243 244 247 249 249 251 254 254 252 253 253 255 256 257 261
263 259 255 250 248 245 241 240 237 236 234 234 233 232 234 236 237 239 240 241 238 238 241 240 245 246 247 247 249 251 252 254 254 254 252 258 262 262
269 258 256 252 248 246 245 242 240 238 236 234 233 233 232 233 234 235 238 238 237 238 240 240 243 245 246 246 250 252 251 252 252 255 254 257 262 262
273 260 253 252 247 245 244 244 242 240 241 237 235 233 233 232 233 233 236 237 238 240 242 241 243 244 243 247 250 251 252 251 248 248 248 251 254 262
272 264 251 250 249 243 242 242 243 242 240 240 239 235 234 234 233 234 234 235 237 238 240 242 241 245 246 246 249 252 252 252 247 247 244 248 254 260
271 263 251 247 248 246 242 241 242 242 242 241 241 240 237 237 236 235 235 235 237 234 235 239 240 242 245 250 251 252 253 252 247 244 240 247 254 257
268 261 252 245 246 247 245 241 241 241 242 242 242 241 240 240 239 238 237 235 236 236 238 241 241 241 244 245 248 250 253 252 249 246 245 249 253 253
265 260 253 247 244 246 246 244 242 241 241 242 242 243 243 242 241 241 240 240 239 238 237 240 242 242 243 245 245 246 248 250 251 248 249 249 250 252
264 258 253 250 246 245 245 246 244 243 243 242 241 242 243 244 244 244 242 242 242 241 238 238 240 242 242 243 245 243 245 247 248 249 251 250 253 255
264 258 254 249 247 247 245 245 244 243 242 243 243 243 244 245 245 245 245 245 244 243 241 240 240 240 242 243 243 243 242 245 245 246 248 251 253 254
261 257 254 252 249 247 246 245 244 243 243 242 243 244 244 245 246 247 248 247 246 245 244 243 242 242 242 242 244 242 244 243 246 247 247 250 251 253
261 258 256 254 252 250 249 248 247 248 246 245 245 246 246 245 245 246 248 248 249 248 247 245 245 245 245 244 243 243 243 243 244 244 246 247 249 251
259 257 255 254 254 253 251 250 248 247 246 244 243 243 244 245 244 244 246 247 247 247 249 249 248 246 245 245 245 244 245 245 244 245 246 248 249 250
259 257 255 253 252 251 250 250 249 247 245 243 241 240 239 240 242 243 243 244 245 245 245 246 247 248 248 247 245 245 246 247 247 248 246 247 248 249
261 257 254 251 250 248 246 245 245 245 246 245 244 243 242 242 242 242 244 244 244 244 244 246 247 247 247 248 249 249 248 248 249 250 249 248 248 249
Height
10594 10602 10611 10620 10628 10636 10644 10652 10657 10666 10676 10677 10680 10684 10686 10692 10697 10702 10708 10713 10718 10723 10727 10728 10731 10737 10740 10744 10746 10749 10750 10751 10751 10752 10753 10754 10755 10756
10557 10567 10578 10588 10597 10607 10616 10624 10631 10644 10654 10655 10660 10665 10671 10676 10681 10686 10692 10696 10701 10706 10711 10715 10717 10721 10725 10729 10733 10736 10739 10741 10741 10743 10744 10745 10747 10748
10516 10526 10540 10552 10563 10575 10583 10593 10604 10615 10628 10633 10637 10641 10647 10657 10660 10665 10673 10678 10684 10688 10692 10697 10701 10707 10711 10716 10720 10723 10726 10729 10731 10733 10735 10736 10738 10739
10476 10489 10499 10512 10524 10536 10548 10559 10572 10586 10600 10610 10613 10618 10622 10631 10641 10645 10651 10658 10664 10669 10675 10681 10685 10690 10695 10701 10705 10710 10713 10717 10719 10721 10724 10726 10727 10728
10439 10450 10461 10472 10484 10497 10511 10523 10537 10551 10567 10581 10586 10592 10596 10604 10614 10621 10629 10638 10644 10650 10655 10662 10668 10673 10678 10684 10689 10694 10698 10702 10705 10708 10711 10714 10715 10718
10407 10414 10423 10432 10444 10459 10473 10485 10499 10514 10533 10548 10556 10564 10567 10573 10586 10597 10606 10615 10623 10627 10631 10637 10644 10654 10661 10667 10671 10676 10680 10683 10688 10694 10697 10701 10703 10706
10380 10385 10391 10398 10406 10418 10432 10447 10462 10478 10497 10514 10524 10533 10539 10547 10558 10570 10578 10588 10598 10601 10611 10617 10626 10636 10642 10648 10654 10658 10660 10665 10670 10677 10682 10685 10689 10692
10355 10360 10362 10368 10373 10382 10392 10409 10425 10441 10458 10478 10491 10501 10508 10518 10530 10538 10550 10565 10574 10579 10589 10598 10602 10611 10618 10626 10632 10636 10641 10647 10653 10658 10664 10668 10674 10678
10329 10334 10336 10340 10345 10352 10360 10371 10385 10400 10420 10439 10455 10468 10475 10487 10504 10509 10520 10538 10549 10550 10565 10575 10576 10586 10592 10600 10608 10615 10622 10627 10632 10637 10643 10650 10655 10659
10301 10305 10308 10312 10319 10325 10330 10339 10350 10364 10382 10401 10419 10433 10444 10455 10469 10477 10490 10505 10518 10524 10530 10553 10546 10563 10570 10579 10584 10592 10600 10604 10610 10616 10624 10629 10634 10640
10273 10278 10280 10285 10292 10298 10304 10310 10320 10332 10346 10361 10376 10390 10406 10421 10435 10446 10458 10477 10487 10494 10498 10524 10520 10536 10543 10552 10558 10563 10576 10585 10589 10594 10604 10608 10611 10620
10241 10248 10252 10255 10262 10268 10275 10281 10290 10302 10312 10325 10339 10353 10369 10385 10400 10414 10424 10441 10458 10468 10470 10485 10497 10504 10516 10521 10533 10544 10549 10556 10565 10570 10577 10583 10585 10598
10210 10218 10223 10226 10233 10240 10247 10255 10263 10271 10281 10290 10303 10318 10333 10348 10364 10379 10394 10405 10419 10438 10439 10450 10469 10471 10483 10495 10505 10513 10522 10529 10535 10541 10549 10553 10558 10573
10181 10188 10194 10198 10204 10212 10221 10227 10234 10244 10254 10264 10273 10285 10298 10314 10327 10342 10359 10374 10389 10404 10408 10413 10436 10443 10452 10464 10474 10479 10486 10498 10504 10511 10517 10525 10535 10546
10153 10160 10165 10170 10176 10183 10192 10200 10209 10217 10226 10235 10245 10255 10265 10278 10290 10304 10318 10335 10352 10369 10380 10382 10398 10410 10422 10439 10452 10450 10449 10456 10469 10483 10488 10499 10509 10518
10128 10135 10137 10143 10152 10158 10164 10173 10182 10190 10199 10208 10219 10227 10236 10246 10256 10266 10280 10295 10314 10327 10342 10346 10362 10377 10388 10403 10417 10426 10419 10426 10432 10450 10460 10467 10479 10486
10107 10108 10112 10119 10126 10131 10138 10146 10157 10165 10173 10180 10191 10199 10208 10218 10226 10235 10247 10258 10274 10286 10301 10312 10324 10340 10356 10365 10381 10392 10391 10405 10408 10408 10420 10437 10446 10454
10084 10085 10088 10094 10101 10106 10113 10119 10127 10135 10144 10155 10165 10174 10181 10189 10198 10205 10215 10225 10237 10246 10260 10272 10285 10302 10316 10332 10343 10352 10363 10371 10377 10376 10388 10404 10414 10419
10062 10063 10065 10070 10076 10082 10088 10095 10101 10110 10120 10130 10138 10148 10157 10164 10172 10178 10185 10196 10207 10214 10225 10234 10247 10261 10277 10294 10302 10316 10324 10337 10339 10347 10355 10366 10382 10387
10043 10044 10046 10050 10054 10060 10065 10073 10082 10090 10099 10110 10120 10126 10131 10137 10145 10152 10158 10167 10176 10183 10194 10202 10211 10220 10237 10252 10266 10275 10284 10293 10301 10315 10319 10332 10350 10352
10024 10026 10028 10031 10035 10040 10045 10052 10059 10067 10076 10084 10090 10096 10101 10108 10116 10125 10132 10139 10148 10156 10162 10167 10173 10187 10199 10211 10225 10233 10239 10248 10259 10274 10283 10294 10310 10320
10005 10008 10009 10012 10016 10020 10025 10031 10038 10045 10048 10053 10060 10067 10075 10083 10090 10095 10103 10110 10119 10128 10135 10138 10142 10153 10164 10175 10187 10195 10198 10204 10215 10229 10242 10253 10263 10280
9988 9989 9991 9995 9997 10000 10004 10010 10015 10020 10026 10034 10042 10050 10058 10065 10071 10076 10081 10087 10093 10100 10106 10110 10116 10127 10137 10147 10154 10161 10165 10169 10177 10185 10199 10210 10223 10234